SCP
0 0 0 0 0 0 0 0 0 0 0 0 0 0 0 0 0 0 0 0 0 0 0 0 0 0 0 0 0 0 0 0 0 0 0 0 0 0 0 0 0 0 0
0 0 0 0 0 0 0 0 0 0 0 0 0 0 0 0 0 0 0 0 0 0 0 0 0 0 0 0 0 0 0 0 0 0 0 0 0 0 0 0 0 0 0
0 0 0 0 0 0 0 0 0 0 0 0 0 0 0 0 0 0 0 0 0 0 0 0 0 0 0 0 0 0 0 0 0 0 0 0 0 0 0 0 0 0 0
0 0 0 0 0 0 0 0 0 0 0 0 0 0 0 0 0 0 0 0 0 0 0 0 0 0 0 0 0 0 0 0 0 0 0 0 0 0 0 0 0 0 0
0 0 0 0 0 0 0 0 0 0 0 0 0 0 0 0 0 0 0 0 0 0 0 0 0 0 0 0 0 0 0 0 0 0 0 0 0 0 0 0 0 0 0
0 0 1 1 0 0 0 0 0 0 0 0 0 0 0 0 0 0 0 0 0 0 0 0 0 0 0 0 0 0 0 0 0 0 0 0 0 0 0 0 0 0 0
1 1 1 1 0 0 0 0 0 0 0 0 0 0 0 0 0 0 0 0 0 0 0 0 0 0 0 0 0 0 0 0 0 0 0 0 0 0 0 0 0 0 0
1 1 1 1 0 0 0 0 0 0 0 0 0 0 0 0 0 0 0 0 0 0 0 0 0 0 0 0 0 0 0 0 0 0 0 0 0 0 0 0 0 0 0
1 1 1 1 1 0 0 1 1 0 0 0 0 0 0 0 0 0 0 0 0 0 0 0 0 0 0 0 0 0 0 0 0 0 0 0 0 0 0 0 0 0 0
1 1 1 1 1 1 1 1 1 0 0 0 0 0 0 0 0 0 0 0 0 0 0 0 0 0 0 0 0 0 0 0 0 0 0 0 0 0 0 0 0 0 0
1 1 1 1 1 1 1 1 1 0 0 0 0 0 0 0 0 0 0 0 0 0 0 0 0 0 0 0 0 0 0 0 0 0 0 0 0 0 0 0 0 0 0
1 1 1 1 1 1 1 1 1 0 0 0 0 0 0 0 0 0 0 0 0 0 0 0 0 0 0 0 0 0 0 0 0 0 0 0 0 0 0 0 0 0 0
1 1 1 1 1 1 1 1 1 0 0 0 0 0 0 0 0 0 0 0 0 0 0 0 0 0 0 0 0 0 0 0 0 0 0 0 0 0 0 0 0 0 0
1 1 1 1 1 1 1 1 1 1 0 0 0 0 0 0 0 0 0 0 0 0 0 0 0 0 0 0 0 0 0 0 0 0 0 0 0 0 0 0 0 0 0
1 1 1 1 1 1 1 1 1 1 1 0 0 0 0 0 0 0 0 0 0 0 0 0 0 0 0 0 0 0 0 0 0 0 0 0 0 0 0 0 0 0 0
1 1 1 1 1 1 1 1 1 1 1 0 0 0 0 0 0 0 0 0 0 0 0 0 0 0 0 0 0 0 0 0 0 0 0 0 0 0 0 0 0 0 0
1 1 1 1 1 1 1 1 1 1 1 1 0 0 0 0 0 0 0 0 0 0 0 0 0 0 0 0 0 0 0 0 0 0 0 0 0 0 0 0 0 0 0
1 1 1 1 1 1 1 1 1 1 1 0 0 0 0 0 0 0 0 0 0 0 0 0 0 0 0 0 0 0 0 0 0 0 0 0 0 0 0 0 0 0 0
1 1 1 1 1 1 1 1 1 0 0 0 0 0 0 0 0 0 0 0 0 0 0 0 0 0 0 0 0 0 0 0 0 0 0 0 0 0 0 0 0 0 0
1 1 1 1 1 1 0 0 0 0 0 0 0 0 0 0 0 0 0 0 0 0 0 0 0 0 0 0 0 0 0 0 0 0 0 0 0 0 0 0 0 0 0
1 1 1 1 0 0 0 0 0 0 0 0 0 0 0 0 0 0 0 0 0 0 0 0 0 0 0 0 0 0 0 0 0 0 0 0 0 0 0 0 0 0 0
1 1 1 1 0 0 0 0 0 0 0 0 0 0 0 0 0 0 0 0 0 0 0 0 0 0 0 0 0 0 0 0 0 0 0 0 0 0 0 0 0 0 0
1 1 1 1 1 0 0 0 0 0 0 0 0 0 0 0 0 0 0 0 0 0 0 0 0 0 0 0 0 0 0 0 0 0 0 0 0 0 0 0 0 0 0
1 1 1 1 1 0 0 0 0 0 0 0 0 0 0 0 0 0 0 0 0 0 0 0 0 0 0 0 0 0 0 0 0 0 0 0 0 0 0 0 0 0 0
1 1 1 1 1 1 0 0 0 0 0 0 0 0 0 0 0 0 0 0 0 0 0 0 0 0 0 0 0 0 0 0 0 0 0 0 0 0 0 0 0 0 0
1 1 1 1 1 1 0 0 0 0 0 0 0 0 0 0 0 0 0 0 0 0 0 0 0 0 0 0 0 0 0 0 0 0 0 0 0 0 0 0 0 0 0
Wind_Speed
2 2 1 2 1 2 3 2 1 1 1 1 1 2 2 2 3 5 5 8 9 8 9 9 10 9 9 8 8 7 7 7 7 7 7 7 7 6 6 6 6 6 5
2 2 1 1 1 1 1 2 2 1 1 1 1 1 2 2 3 4 5 5 7 8 8 8 9 9 9 9 8 8 7 7 7 8 7 6 6 6 6 6 6 6 6
2 1 1 1 1 1 1 1 1 1 1 1 1 1 1 1 2 2 4 4 4 6 8 8 8 9 9 9 9 8 8 7 7 7 7 7 6 6 6 6 6 6 6
2 1 0 1 1 1 1 1 1 1 1 1 1 0 1 1 1 2 2 3 3 4 6 8 8 8 8 8 8 9 9 8 8 8 7 7 6 6 6 6 6 6 6
1 1 1 1 0 0 0 1 1 1 1 1 1 1 1 1 2 2 2 2 2 3 4 6 8 7 8 8 8 8 8 8 8 8 8 8 7 6 6 6 6 6 6
1 1 1 1 0 1 1 1 1 0 0 1 1 1 1 2 2 2 2 2 2 3 4 5 5 5 7 7 7 7 8 8 8 8 9 9 8 7 7 7 7 7 7
1 1 1 1 0 0 1 0 0 1 1 1 1 1 0 1 2 2 2 2 3 3 3 3 4 3 4 6 6 6 8 8 7 8 8 8 8 7 7 8 8 8 8
1 1 1 1 1 0 0 1 1 1 1 1 1 1 1 0 0 1 1 2 2 3 4 4 3 3 2 3 3 5 5 6 6 6 6 7 6 6 6 8 9 9 8
0 0 1 1 1 0 0 1 0 1 1 1 2 1 1 1 1 0 2 1 1 1 2 3 3 3 3 3 3 4 5 4 4 4 4 5 4 4 5 5 7 8 8
0 0 1 1 1 1 1 1 1 1 1 1 1 1 1 1 1 1 0 1 1 1 1 2 3 4 4 3 4 5 5 4 4 3 3 2 3 3 3 4 5 7 7
1 0 1 1 1 0 1 1 1 1 1 1 1 0 0 0 1 2 1 0 1 1 1 2 2 3 4 3 3 5 7 5 4 3 3 2 1 1 1 1 2 3 3
1 1 1 1 1 0 1 1 1 1 1 1 1 0 0 1 1 1 2 2 1 1 1 1 2 2 3 3 5 7 8 7 5 4 4 3 2 2 1 1 1 2 2
1 1 1 1 0 1 0 0 0 1 1 1 1 1 1 1 0 1 1 1 1 1 1 1 1 2 3 3 4 7 7 7 6 5 4 4 4 4 3 3 2 2 3
1 2 2 1 1 1 0 0 0 0 1 1 2 2 1 1 1 1 1 2 1 1 1 1 1 2 2 3 5 7 5 8 7 6 6 5 5 5 5 4 4 4 5
1 2 2 2 1 1 0 0 0 1 1 1 2 2 1 1 0 0 1 2 2 1 1 1 1 2 2 3 4 4 5 7 8 7 7 6 6 6 6 6 6 6 6
2 2 2 2 1 1 1 0 0 1 1 1 1 2 2 2 1 0 1 1 1 2 1 1 1 2 2 4 5 4 5 9 9 8 7 7 6 6 6 6 6 6 6
2 2 2 2 2 2 1 1 1 1 2 2 2 2 2 2 2 2 2 2 2 2 3 1 2 2 3 3 3 3 5 5 5 8 8 7 7 6 6 6 6 6 6
2 3 2 1 1 2 2 1 1 2 2 2 2 2 3 2 2 2 2 2 2 2 3 3 2 2 2 2 2 2 4 4 5 8 8 8 7 7 7 7 7 6 6
2 2 2 2 2 2 2 2 2 2 2 2 2 2 2 3 3 2 2 2 2 2 3 3 2 2 1 1 1 2 4 3 5 7 8 7 7 8 7 7 7 6 6
3 2 2 2 2 2 2 2 2 2 2 3 3 4 4 3 3 2 2 3 2 2 2 2 2 2 1 0 1 1 2 1 2 4 4 6 7 7 7 6 5 5 5
3 2 2 2 2 2 3 3 2 3 3 3 3 3 4 6 7 4 3 2 2 2 2 2 2 2 1 1 0 0 1 1 1 2 2 3 3 3 3 4 4 5 5
3 3 3 3 3 3 5 5 4 3 3 3 3 2 3 4 5 6 6 6 4 2 1 1 2 2 1 1 1 0 1 1 0 1 1 2 2 2 3 3 5 5 5
3 3 3 4 4 5 6 6 5 2 3 3 3 2 2 3 3 2 4 5 5 6 4 1 2 2 2 1 0 1 0 0 1 1 1 1 2 2 2 3 7 7 6
3 3 3 3 4 5 6 5 4 2 2 2 2 2 2 3 4 3 3 3 4 4 3 3 2 1 1 1 1 1 1 1 1 1 1 1 1 1 2 2 6 8 7
3 3 3 3 3 3 4 4 3 1 2 2 2 3 2 3 5 4 3 3 2 2 3 4 3 2 1 0 0 0 0 1 1 1 0 1 1 1 1 2 3 7 7
2 3 3 3 3 3 3 4 3 1 1 2 2 2 4 3 3 4 2 2 1 1 1 2 1 1 1 1 0 0 0 0 0 0 0 1 1 1 1 1 2 3 3
Wind_Direction
88 86 94 98 127 145 145 157 171 182 188 165 173 136 101 101 117 122 132 146 147 153 158 163 165 168 169 167 171 177 179 181 179 175 173 173 177 178 177 178 177 174 172
66 68 89 106 125 137 143 158 167 166 167 133 101 97 117 118 118 132 137 151 156 158 162 168 171 175 178 179 180 185 186 186 184 184 184 183 185 186 186 186 182 181 179
78 74 74 129 144 147 121 120 149 180 182 154 136 147 146 138 129 123 139 153 159 163 167 169 173 177 183 189 189 190 192 190 187 189 187 186 191 192 190 191 190 189 187
86 76 93 109 125 150 157 169 185 172 158 131 138 164 140 126 138 148 153 157 161 161 173 179 175 176 181 186 191 195 196 195 193 191 191 192 194 194 193 196 196 197 196
90 118 150 126 219 150 167 195 108 112 133 148 165 178 153 160 166 176 171 179 163 152 162 175 178 179 186 191 191 192 193 192 192 193 197 200 200 199 197 200 204 205 204
78 22 156 120 333 75 60 53 59 352 134 197 205 153 162 173 166 175 185 188 168 170 168 162 171 184 187 193 198 200 201 196 193 192 197 200 201 198 201 206 210 215 215
64 36 20 74 61 115 153 144 176 212 199 173 143 108 208 173 171 173 187 189 180 173 154 151 161 170 178 191 197 203 208 206 197 193 197 200 203 204 206 211 212 216 216
42 91 46 59 87 59 180 222 206 219 218 176 168 162 184 99 270 199 184 200 195 164 153 152 148 151 149 154 162 181 187 190 192 192 194 196 200 206 211 214 216 218 218
97 22 61 25 26 357 249 221 251 220 240 236 195 190 188 185 169 185 202 162 96 100 123 124 130 125 122 115 139 171 173 170 171 179 187 191 197 204 209 218 222 220 221
98 87 110 86 16 21 8 255 192 259 240 248 228 213 213 154 156 142 130 120 142 166 134 138 126 128 128 118 109 118 139 146 154 168 171 181 201 209 219 226 231 228 227
192 145 121 130 93 13 334 328 46 301 280 265 262 264 214 187 172 163 177 159 154 137 145 132 114 123 127 124 121 115 123 128 128 131 130 127 127 131 186 228 248 257 248
174 139 114 109 116 97 346 23 347 328 334 342 331 322 261 189 191 168 166 176 156 116 111 118 118 120 127 127 125 121 125 125 121 116 109 101 91 77 59 22 326 324 315
138 128 106 116 128 150 272 61 315 335 342 341 326 304 318 331 32 127 152 159 158 150 110 101 129 127 125 119 117 123 126 128 124 113 101 91 79 68 55 42 30 11 359
95 116 124 127 117 107 64 58 349 335 350 346 348 347 342 5 26 134 161 153 154 139 110 111 108 100 105 115 123 135 123 125 120 111 100 91 83 74 64 56 54 43 41
100 86 115 120 110 114 114 97 20 12 32 33 10 4 350 360 351 89 137 155 162 150 142 129 100 100 117 107 120 123 118 119 119 112 105 98 91 83 72 65 62 57 51
65 67 79 87 84 64 52 84 55 48 70 54 36 18 12 356 341 352 148 148 112 134 143 119 99 100 101 111 113 114 118 117 114 114 109 103 98 91 83 77 73 68 62
88 72 66 63 69 63 53 57 57 47 59 45 31 35 16 15 16 12 28 64 82 106 124 116 109 109 97 101 120 133 131 127 118 117 114 108 103 97 90 82 78 75 70
93 89 86 77 72 67 55 52 43 51 60 62 41 36 22 25 31 27 25 45 84 109 124 125 120 112 94 105 130 139 129 128 128 124 119 116 114 107 96 90 86 83 78
92 87 78 70 56 58 60 51 45 47 55 58 53 48 37 38 35 39 41 47 58 80 109 119 119 103 95 97 114 117 116 123 130 133 127 123 121 115 106 101 96 91 86
99 90 81 76 67 48 47 50 60 58 65 64 61 53 41 43 37 39 57 53 60 64 91 111 115 119 108 77 86 111 114 128 120 129 126 132 131 127 118 115 109 106 103
104 101 98 85 75 68 40 29 58 83 75 72 70 69 62 60 58 52 60 61 70 72 90 103 105 94 85 77 50 223 121 135 124 117 132 139 143 144 143 133 125 123 119
97 98 93 78 69 63 42 43 43 72 78 69 63 68 83 70 70 74 71 67 68 87 78 88 103 114 109 75 7 352 118 142 205 142 145 159 149 149 151 153 153 146 140
112 105 99 93 84 59 48 43 33 54 70 61 49 40 42 60 60 79 92 84 64 59 66 92 106 117 134 137 182 294 320 245 176 165 142 174 152 156 162 154 161 163 164
109 115 108 101 93 69 52 48 29 76 80 77 64 50 43 47 36 32 85 82 72 51 51 67 80 83 112 167 213 217 194 132 115 72 84 223 195 190 165 161 178 178 179
115 120 121 114 101 80 45 40 21 100 91 80 73 57 62 61 32 37 72 81 75 67 74 76 78 100 103 15 302 27 200 154 189 211 213 267 213 185 181 181 187 189 192
122 118 116 116 114 102 57 33 9 55 100 91 78 73 60 63 43 41 67 91 85 1 49 79 82 103 141 101 54 187 277 257 217 177 266 269 216 203 207 194 186 184 202